OPTUS 10

Last updated on Wed Jul 16 2025 00:02:47 GMT+0000 (Coordinated Universal Time)

1 40146U 14054A 25196.50739317 -.00000140 00000+0 00000+0 0 9991 2 40146 0.0322 84.9577 0002142 48.6463 138.6552 1.00270210 39650
UTC large
Height (km)
Speed (km/s)
/
Latitude / Longitude
Inclination (degrees)
Orbital Period (minutes)
Azimuth
Elevation
Range (km)
Doppler Factor

Next 0 passes for location: London (51.5072 / 0.1276)

Sorry there are no passes over London.